Presure
288 292 234 241 222 246 198 221 224 217 211 209 184 192 148 198 185 188 180 182 204 209 147 208 118 126 118 120 130 142 133 108 128 117 134 129 121 110 118 88 107 120 112 115 130
289 253 277 254 256 252 245 240 227 226 215 214 203 185 195 182 194 205 191 202 194 195 204 148 167 163 171 167 142 112 152 163 111 128 124 120 126 128 108 98 110 116 111 105 125
223 294 289 292 257 254 263 243 233 228 221 208 219 218 197 198 192 192 187 164 210 167 206 167 178 141 134 169 166 198 123 123 110 124 120 131 123 124 119 107 123 113 124 116 92
221 179 217 281 285 285 288 271 271 257 261 252 263 206 205 223 218 194 168 197 197 169 210 205 152 205 173 194 191 167 200 182 195 117 145 130 139 94 118 121 126 122 104 102 116
227 217 214 212 213 225 228 232 233 240 246 246 246 250 254 257 260 259 257 262 227 265 274 259 231 205 184 167 180 192 199 179 159 111 180 103 121 97 116 116 125 130 81 128 121
217 210 208 206 212 206 200 204 206 210 214 216 217 215 213 215 219 221 228 228 230 233 247 228 255 269 209 228 196 210 169 147 182 164 171 125 84 128 151 113 122 117 124 133 126
217 222 203 217 202 207 207 212 211 211 214 213 212 210 208 204 209 210 213 207 225 224 218 235 233 243 146 256 271 146 202 197 196 205 207 120 134 187 65 151 98 107 125 128 95
213 207 206 202 200 199 195 199 212 212 206 204 206 207 207 203 215 216 208 207 216 213 218 217 223 139 234 217 224 256 285 238 146 108 207 187 119 92 62 87 103 116 106 118 121
214 213 207 201 197 191 191 202 203 208 202 197 200 202 197 201 199 208 218 221 214 210 227 222 234 226 229 243 242 247 256 250 267 191 132 168 171 172 107 123 114 119 112 121 115
211 209 207 208 199 193 191 202 208 194 192 192 197 196 198 200 202 201 209 206 217 222 226 229 227 233 267 229 236 246 253 259 274 137 229 141 216 222 133 70 199 98 112 121 118
208 214 207 207 205 191 191 211 187 195 189 181 188 189 190 193 205 201 203 209 215 222 230 291 368 357 349 337 338 238 318 257 268 259 270 238 246 134 178 107 130 137 165 121 109
204 207 201 199 201 198 200 182 193 196 192 187 189 191 191 195 197 196 195 210 214 263 410 409 416 426 433 425 422 421 420 251 260 268 265 282 231 105 137 145 147 139 156 148 97
188 194 195 201 194 196 195 185 206 198 176 178 193 189 189 191 195 200 206 217 270 409 435 429 358 340 336 370 410 412 419 355 351 262 277 215 287 278 99 156 101 219 189 176 209
190 187 194 206 202 198 191 181 203 206 202 170 192 185 187 192 190 186 212 221 440 385 344 381 360 376 371 371 375 376 376 392 225 416 386 278 284 282 241 235 186 213 195 207 116
185 186 196 212 194 207 194 197 184 209 208 176 183 185 187 191 189 197 212 305 416 388 384 360 358 353 352 354 357 362 361 369 380 385 385 406 404 287 275 92 225 226 164 142 144
192 184 197 197 207 187 201 192 196 197 187 174 182 186 179 194 207 209 220 340 403 327 369 363 353 351 346 346 349 351 352 356 370 372 379 326 377 201 267 281 224 184 169 215 113
197 186 184 184 185 183 192 189 195 195 183 178 181 183 194 198 186 216 226 418 393 372 360 351 332 337 345 388 352 350 347 350 352 355 333 319 367 389 369 239 262 63 62 67 71
208 193 184 183 181 180 181 186 186 192 195 175 188 182 189 196 197 214 228 291 387 338 354 342 329 384 380 354 328 372 335 345 345 344 347 355 63 359 385 392 398 274 275 133 99
219 197 184 182 183 179 187 174 191 188 188 182 184 191 190 197 198 210 224 267 377 317 357 338 406 387 371 332 370 361 353 337 340 342 344 351 344 66 371 266 392 281 232 230 226
246 208 190 186 180 180 178 180 188 188 183 198 204 188 186 196 203 211 224 245 385 338 361 336 415 370 368 363 357 345 340 341 372 354 260 142 166 89 306 182 382 392 282 261 225
228 225 198 184 181 181 181 177 182 188 186 188 186 184 187 190 203 210 228 246 385 354 368 341 402 356 359 354 345 337 327 335 334 343 347 370 365 361 336 70 378 386 334 272 286
222 230 205 191 184 180 184 180 185 183 187 185 178 181 184 187 197 207 224 246 332 372 345 362 363 368 351 352 342 332 325 321 323 328 328 339 333 338 68 79 87 82 282 295 237
216 229 220 198 180 186 180 182 187 180 185 188 192 182 186 187 195 205 218 236 264 374 319 384 375 347 344 349 348 330 321 314 310 314 319 326 263 335 335 346 348 376 405 382 317
201 228 227 203 190 185 185 181 187 185 188 188 185 198 183 188 197 205 216 237 254 376 341 375 379 348 335 335 356 332 321 318 313 303 312 320 305 342 211 335 207 356 375 383 267
215 219 232 218 196 185 190 184 185 183 192 190 190 197 185 187 196 207 214 235 243 348 352 378 353 345 323 320 335 345 321 311 308 297 310 383 320 307 326 331 345 266 345 157 146
217 220 216 221 203 183 189 192 183 190 188 190 184 188 188 196 195 206 208 224 235 265 360 326 344 335 322 321 319 326 330 322 312 294 329 411 363 313 316 338 327 324 246 323 330
216 215 218 221 210 194 187 191 185 188 189 195 188 181 187 189 193 207 206 219 236 248 374 347 357 332 317 320 311 316 328 318 307 298 298 360 380 314 319 323 319 303 261 319 317
Wind_Speed
20 40 49 53 56 56 69 67 73 79 77 81 89 78 87 92 88 107 101 93 97 97 89 99 76 78 72 75 79 84 74 69 81 71 81 65 59 51 62 33 48 55 47 48 43
17 30 33 49 57 54 60 63 74 77 80 78 90 86 95 100 103 96 109 99 106 103 104 90 98 89 91 97 87 65 84 87 66 81 78 65 64 62 54 51 58 60 47 46 50
23 11 22 32 36 43 50 62 68 76 78 74 81 82 99 92 107 106 105 78 101 77 107 78 90 89 87 91 94 102 85 91 66 82 73 81 67 63 64 58 68 62 65 49 44
19 32 17 10 19 25 32 45 49 54 54 56 54 75 85 87 89 102 75 108 109 86 107 113 89 115 91 115 114 86 103 105 106 70 88 68 78 49 63 70 72 70 57 52 55
15 14 14 14 12 9 7 10 14 15 18 21 24 27 29 33 37 40 44 47 62 50 53 73 72 117 109 105 110 105 117 99 75 69 97 54 74 56 69 74 77 77 43 71 58
14 13 14 12 11 15 18 18 21 23 24 26 30 36 43 48 49 52 51 56 59 61 55 63 63 64 117 109 116 122 102 101 96 89 108 86 52 72 87 90 75 66 73 77 66
15 12 14 10 14 13 15 17 21 24 22 26 31 36 41 46 49 53 54 62 55 60 69 64 73 74 84 79 81 99 122 119 108 118 123 77 97 106 19 97 57 54 74 77 45
16 14 13 14 16 16 17 18 17 18 24 29 29 30 33 38 37 44 54 60 61 67 69 73 78 98 84 90 93 87 89 113 97 50 118 120 75 66 26 10 46 69 58 67 68
18 15 15 18 19 22 22 22 23 22 24 30 31 31 36 39 44 46 50 52 62 70 66 75 74 86 91 91 96 93 94 88 107 114 92 108 102 112 75 82 69 75 68 72 63
23 19 18 18 21 24 22 26 28 27 31 32 31 33 38 41 45 49 51 54 60 68 72 74 83 83 96 102 99 100 104 99 96 93 127 93 109 119 83 32 113 43 68 78 75
26 22 21 21 22 24 25 29 29 30 35 38 35 39 41 44 50 50 54 63 72 76 79 92 89 91 94 97 100 104 107 105 101 105 119 124 120 101 96 68 80 84 92 83 68
29 23 22 23 23 26 29 29 31 35 35 35 40 43 44 47 50 52 55 72 76 80 72 71 71 69 69 72 77 80 82 109 107 109 119 117 116 43 101 84 94 88 95 82 42
33 31 28 24 25 27 29 31 35 37 37 40 44 45 47 49 57 65 72 79 80 60 51 44 57 63 64 58 50 52 54 45 82 112 112 87 117 113 51 96 54 121 111 94 106
32 36 32 27 28 29 31 33 35 36 39 43 45 47 50 57 57 56 78 81 49 50 53 44 49 45 47 47 50 50 54 53 41 52 71 118 114 111 120 118 104 121 114 119 83
32 35 33 27 29 30 34 36 37 38 41 42 45 50 52 60 60 67 71 77 43 43 41 43 45 47 48 52 50 49 51 50 50 51 58 54 68 105 114 50 122 116 102 101 104
32 33 34 32 28 31 32 36 38 39 41 44 48 52 52 64 72 76 75 67 43 50 43 42 44 45 47 49 50 50 48 47 47 47 54 44 61 54 108 114 113 101 82 120 62
36 34 32 35 35 35 35 38 40 42 43 45 49 53 62 65 59 79 81 49 43 41 42 41 44 43 43 35 41 43 44 43 42 44 39 46 52 49 65 94 116 14 20 26 22
39 36 35 35 37 38 39 40 40 43 47 46 52 52 61 69 70 80 84 79 44 47 42 40 42 35 38 31 38 29 38 39 40 46 50 48 8 52 61 68 73 118 121 69 44
38 41 42 38 37 39 42 42 44 45 49 49 53 58 60 66 68 76 81 76 48 48 42 40 28 30 30 32 25 28 29 37 36 38 44 40 41 5 55 48 67 115 109 128 132
40 42 43 41 41 39 42 44 48 48 49 56 59 58 62 71 74 78 81 85 50 50 43 39 20 31 26 23 24 24 28 28 22 31 21 31 43 25 48 25 69 69 116 121 132
51 43 47 45 43 42 44 44 46 49 50 53 54 55 61 67 75 80 84 84 51 52 44 37 24 28 22 24 22 22 28 26 25 23 27 28 34 43 49 14 62 63 94 118 122
51 47 48 48 47 45 46 47 47 48 50 52 49 55 59 64 75 79 85 87 72 51 49 41 30 18 24 24 24 25 26 24 23 23 22 23 30 41 15 16 17 22 46 112 118
53 50 49 50 49 49 49 50 49 47 50 53 58 54 61 63 71 77 82 85 92 52 52 43 26 21 22 25 26 26 27 25 25 24 24 26 29 39 44 46 48 49 46 62 104
67 53 52 52 51 50 51 52 51 49 50 53 52 61 57 63 71 74 79 84 86 49 52 43 30 23 23 26 27 25 27 26 24 25 26 26 37 38 34 43 34 42 37 47 107
61 50 54 54 53 50 52 52 52 50 51 53 54 59 56 59 70 73 77 81 83 61 49 41 34 25 21 26 26 21 28 26 23 26 21 25 34 46 41 39 38 37 43 33 38
69 51 50 57 55 50 52 53 51 52 50 52 47 53 56 60 64 70 73 77 77 91 47 47 35 28 26 23 26 20 27 26 22 24 20 18 29 43 42 32 37 35 34 49 48
70 58 51 54 58 56 52 52 50 51 51 54 50 45 53 56 62 68 70 74 77 84 46 44 33 30 30 24 25 25 25 24 22 25 23 20 24 38 39 35 37 42 35 49 44
Wind_Direction
253 234 239 234 243 228 251 233 232 233 235 230 242 237 244 235 245 240 246 242 240 241 244 240 247 245 248 245 240 240 240 253 241 252 245 235 235 245 240 235 258 248 244 247 240
281 265 237 235 239 237 233 233 229 232 235 233 232 245 237 245 239 239 241 240 244 243 240 244 243 246 244 243 241 248 236 236 250 241 249 247 235 233 249 247 258 253 238 240 243
329 285 253 250 245 247 245 236 234 233 233 239 240 242 242 243 244 247 243 251 239 250 240 249 243 247 243 243 242 241 236 241 250 243 239 246 236 234 236 249 243 249 246 240 241
328 289 316 267 247 248 248 245 248 249 250 253 259 248 245 246 246 249 245 252 250 243 244 246 229 243 250 243 247 241 242 239 240 249 239 225 238 233 236 239 240 244 248 244 242
321 312 307 299 289 276 260 244 245 243 242 247 249 249 250 252 254 255 258 259 251 257 260 256 255 247 243 238 241 247 244 252 238 255 242 237 242 241 239 239 235 237 245 243 239
312 303 294 290 279 271 265 257 252 246 244 246 249 251 250 250 250 251 251 251 252 254 260 256 256 255 246 247 249 244 235 236 248 241 237 245 223 235 241 239 233 240 238 243 241
315 308 285 295 274 269 259 253 251 252 251 247 248 249 250 250 252 253 256 254 264 261 254 262 256 255 252 251 249 239 239 245 246 244 241 248 242 243 234 237 249 242 237 240 235
303 289 285 273 271 262 258 262 275 267 255 256 257 259 265 265 274 268 260 257 258 256 257 253 254 247 253 249 248 248 244 238 242 244 238 239 225 234 232 228 252 240 246 245 241
294 287 283 273 272 266 266 282 277 273 268 264 271 275 272 274 270 278 286 280 267 261 269 259 258 254 252 251 248 249 246 243 233 236 241 239 234 236 250 248 241 245 253 243 248
294 293 286 278 273 270 275 286 277 270 268 272 279 279 285 288 287 282 293 278 291 286 281 273 261 257 263 253 250 248 247 242 240 243 239 241 230 230 239 248 236 228 255 239 249
299 292 290 285 281 276 281 284 273 278 273 268 280 282 282 289 305 296 293 296 296 290 288 284 273 269 264 261 259 250 252 245 239 236 239 237 233 241 230 243 238 233 240 245 260
295 294 288 289 288 285 284 279 283 283 282 285 288 291 294 303 303 300 294 302 297 292 282 279 277 274 271 268 265 263 262 246 242 237 237 236 234 241 242 234 239 236 234 243 214
300 296 291 290 286 288 286 288 288 284 283 288 295 296 300 306 308 308 307 305 303 295 290 286 279 275 269 267 269 266 264 256 248 240 238 239 235 232 236 236 239 233 236 235 234
297 295 290 292 291 291 290 286 296 293 292 286 300 301 307 310 308 304 309 309 305 302 296 289 283 278 275 272 268 264 261 259 242 252 245 239 236 233 230 232 230 230 232 236 237
291 295 294 294 295 296 297 298 293 303 302 294 301 306 310 310 307 308 311 319 311 305 299 291 285 280 276 272 268 265 263 261 259 253 250 247 250 231 230 235 233 232 231 229 228
286 291 299 300 302 298 305 304 308 309 301 298 306 308 309 311 311 314 319 325 315 311 304 296 290 286 279 275 271 267 263 260 258 255 252 248 245 246 230 227 224 232 232 230 232
286 287 291 297 299 300 307 306 308 307 299 301 305 308 311 314 311 321 325 325 321 317 312 303 296 290 285 279 272 268 264 259 253 252 253 244 241 246 233 228 224 212 230 239 249
286 286 287 293 295 299 301 304 307 307 304 301 308 312 316 318 321 324 329 336 327 323 317 307 301 290 292 281 273 270 260 258 250 244 244 247 282 242 239 232 231 224 223 236 247
285 282 285 286 292 295 301 297 307 306 306 306 310 314 317 318 322 324 331 335 331 330 324 315 308 290 284 283 274 270 262 257 254 251 247 242 239 296 243 239 235 222 222 223 229
284 276 278 282 287 290 294 299 305 305 307 309 310 318 321 323 326 328 332 337 331 333 330 321 315 292 287 278 268 266 268 263 257 254 253 234 236 231 230 227 234 231 221 219 224
314 275 275 280 282 287 290 294 301 304 307 310 314 319 321 324 327 329 333 339 334 335 333 329 324 287 288 275 269 262 259 262 264 254 246 237 227 233 235 237 236 233 222 219 218
312 284 270 276 281 286 288 292 297 303 307 310 314 320 322 325 327 329 334 341 346 334 336 332 326 301 286 274 264 259 260 256 256 255 242 231 226 226 248 243 239 231 229 219 218
317 291 273 270 280 282 288 291 294 301 306 308 310 318 320 324 327 329 332 340 351 334 338 335 322 309 291 278 269 265 259 254 253 250 250 228 227 231 229 237 241 241 243 227 219
316 295 277 267 273 280 284 290 293 299 304 307 310 315 321 325 325 328 333 341 349 335 335 333 327 310 303 293 275 266 266 258 254 256 247 237 221 233 214 232 234 237 235 230 218
315 297 281 271 269 277 280 287 293 298 303 305 311 315 319 324 325 329 333 341 345 343 334 331 327 320 301 293 293 274 265 261 253 251 247 241 215 229 224 225 233 231 224 228 235
311 300 288 275 267 277 278 283 289 293 300 301 309 315 318 322 326 329 331 338 343 352 335 336 323 322 304 299 294 282 260 258 255 247 259 259 232 224 223 218 223 222 222 219 216
307 300 287 279 270 271 278 282 287 292 297 300 307 315 317 324 326 328 331 336 345 348 335 336 323 316 312 305 290 282 269 260 249 240 244 253 236 224 218 210 211 214 211 217 218